Year,Month,Day,Hour,Minute,Value (Times are PST for temperature in C)
2019,05,27,00,00,15.30
2019,05,27,00,01,15.20
2019,05,27,00,02,15.20
2019,05,27,00,03,15.20
2019,05,27,00,04,15.20
2019,05,27,00,05,15.20
2019,05,27,00,06,15.20
2019,05,27,00,07,15.20
2019,05,27,00,08,15.30
2019,05,27,00,09,15.30
2019,05,27,00,10,15.40
2019,05,27,00,11,15.50
2019,05,27,00,12,15.60
2019,05,27,00,13,15.60
2019,05,27,00,14,15.70
2019,05,27,00,15,15.70
2019,05,27,00,16,15.70
2019,05,27,00,17,15.70
2019,05,27,00,18,15.70
2019,05,27,00,19,15.70
2019,05,27,00,20,15.70
2019,05,27,00,21,15.70
2019,05,27,00,22,15.80
2019,05,27,00,23,15.90
2019,05,27,00,24,16.00
2019,05,27,00,25,16.10
2019,05,27,00,26,16.10
2019,05,27,00,27,16.10
2019,05,27,00,28,16.00
2019,05,27,00,29,16.00
2019,05,27,00,30,15.90
2019,05,27,00,31,15.80
2019,05,27,00,32,15.80
2019,05,27,00,33,15.70
2019,05,27,00,34,15.70
2019,05,27,00,35,15.70
2019,05,27,00,36,15.70
2019,05,27,00,37,15.80
2019,05,27,00,38,15.90
2019,05,27,00,39,15.90
2019,05,27,00,40,16.00
2019,05,27,00,41,16.00
2019,05,27,00,42,16.10
2019,05,27,00,43,16.20
2019,05,27,00,44,16.30
2019,05,27,00,45,16.30
2019,05,27,00,46,16.40
2019,05,27,00,47,16.40
2019,05,27,00,48,16.50
2019,05,27,00,49,16.50
2019,05,27,00,50,16.50
2019,05,27,00,51,16.50
2019,05,27,00,52,16.40
2019,05,27,00,53,16.30
2019,05,27,00,54,16.20
2019,05,27,00,55,16.20
2019,05,27,00,56,16.10
2019,05,27,00,57,16.00
2019,05,27,00,58,16.00
2019,05,27,00,59,15.90
2019,05,27,01,00,15.80
2019,05,27,01,01,15.80
2019,05,27,01,02,15.70
2019,05,27,01,03,15.70
2019,05,27,01,04,15.70
2019,05,27,01,05,15.70
2019,05,27,01,06,15.70
2019,05,27,01,07,15.70
2019,05,27,01,08,15.70
2019,05,27,01,09,15.60
2019,05,27,01,10,15.60
2019,05,27,01,11,15.50
2019,05,27,01,12,15.50
2019,05,27,01,13,15.50
2019,05,27,01,14,15.50
2019,05,27,01,15,15.50
2019,05,27,01,16,15.50
2019,05,27,01,17,15.50
2019,05,27,01,18,15.60
2019,05,27,01,19,15.60
2019,05,27,01,20,15.60
2019,05,27,01,21,15.70
2019,05,27,01,22,15.80
2019,05,27,01,23,15.90
2019,05,27,01,24,15.90
2019,05,27,01,25,16.00
2019,05,27,01,26,16.10
2019,05,27,01,27,16.10
2019,05,27,01,28,16.10
2019,05,27,01,29,16.00
2019,05,27,01,30,15.90
2019,05,27,01,31,15.90
2019,05,27,01,32,15.80
2019,05,27,01,33,15.70
2019,05,27,01,34,15.70
2019,05,27,01,35,15.70
2019,05,27,01,36,15.70
2019,05,27,01,37,15.70
2019,05,27,01,38,15.70
2019,05,27,01,39,15.80
2019,05,27,01,40,15.80
2019,05,27,01,41,15.90
2019,05,27,01,42,16.00
2019,05,27,01,43,16.00
2019,05,27,01,44,16.00
2019,05,27,01,45,16.10
2019,05,27,01,46,16.10
2019,05,27,01,47,16.00
2019,05,27,01,48,16.00
2019,05,27,01,49,16.00
2019,05,27,01,50,16.00
2019,05,27,01,51,16.00
2019,05,27,01,52,15.90
2019,05,27,01,53,15.90
2019,05,27,01,54,16.00
2019,05,27,01,55,16.10
2019,05,27,01,56,16.10
2019,05,27,01,57,16.20
2019,05,27,01,58,16.30
2019,05,27,01,59,16.40
2019,05,27,02,00,16.50
2019,05,27,02,01,16.60
2019,05,27,02,02,16.70
2019,05,27,02,03,16.80
2019,05,27,02,04,16.80
2019,05,27,02,05,16.90
2019,05,27,02,06,16.90
2019,05,27,02,07,17.00
2019,05,27,02,08,17.10
2019,05,27,02,09,17.10
2019,05,27,02,10,17.20
2019,05,27,02,11,17.30
2019,05,27,02,12,17.30
2019,05,27,02,13,17.30
2019,05,27,02,14,17.30
2019,05,27,02,15,17.30
2019,05,27,02,16,17.30
2019,05,27,02,17,17.30
2019,05,27,02,18,17.20
2019,05,27,02,19,17.10
2019,05,27,02,20,17.00
2019,05,27,02,21,16.90
2019,05,27,02,22,16.70
2019,05,27,02,23,16.60
2019,05,27,02,24,16.50
2019,05,27,02,25,16.40
2019,05,27,02,26,16.30
2019,05,27,02,27,16.40
2019,05,27,02,28,16.50
2019,05,27,02,29,16.60
2019,05,27,02,30,16.70
2019,05,27,02,31,16.80
2019,05,27,02,32,16.80
2019,05,27,02,33,16.90
2019,05,27,02,34,16.80
2019,05,27,02,35,16.80
2019,05,27,02,36,16.70
2019,05,27,02,37,16.60
2019,05,27,02,38,16.50
2019,05,27,02,39,16.40
2019,05,27,02,40,16.30
2019,05,27,02,41,16.30
2019,05,27,02,42,16.20
2019,05,27,02,43,16.20
2019,05,27,02,44,16.10
2019,05,27,02,45,16.00
2019,05,27,02,46,15.90
2019,05,27,02,47,15.80
2019,05,27,02,48,15.70
2019,05,27,02,49,15.60
2019,05,27,02,50,15.50
2019,05,27,02,51,15.40
2019,05,27,02,52,15.30
2019,05,27,02,53,15.20
2019,05,27,02,54,15.10
2019,05,27,02,55,15.00
2019,05,27,02,56,14.90
2019,05,27,02,57,14.80
2019,05,27,02,58,14.70
2019,05,27,02,59,14.60
2019,05,27,03,00,14.60
2019,05,27,03,01,14.60
2019,05,27,03,02,14.60
2019,05,27,03,03,14.60
2019,05,27,03,04,14.60
2019,05,27,03,05,14.60
2019,05,27,03,06,14.60
2019,05,27,03,07,14.60
2019,05,27,03,08,14.60
2019,05,27,03,09,14.50
2019,05,27,03,10,14.50
2019,05,27,03,11,14.50
2019,05,27,03,12,14.50
2019,05,27,03,13,14.50
2019,05,27,03,14,14.60
2019,05,27,03,15,14.70
2019,05,27,03,16,14.70
2019,05,27,03,17,14.60
2019,05,27,03,18,14.50
2019,05,27,03,19,14.50
2019,05,27,03,20,14.40
2019,05,27,03,21,14.30
2019,05,27,03,22,14.30
2019,05,27,03,23,14.20
2019,05,27,03,24,14.10
2019,05,27,03,25,14.10
2019,05,27,03,26,14.10
2019,05,27,03,27,14.00
2019,05,27,03,28,14.00
2019,05,27,03,29,14.00
2019,05,27,03,30,13.90
2019,05,27,03,31,13.90
2019,05,27,03,32,13.90
2019,05,27,03,33,13.90
2019,05,27,03,34,13.90
2019,05,27,03,35,13.80
2019,05,27,03,36,13.80
2019,05,27,03,37,13.80
2019,05,27,03,38,13.80
2019,05,27,03,39,13.80
2019,05,27,03,40,13.70
2019,05,27,03,41,13.70
2019,05,27,03,42,13.70
2019,05,27,03,43,13.70
2019,05,27,03,44,13.70
2019,05,27,03,45,13.70
2019,05,27,03,46,13.70
2019,05,27,03,47,13.70
2019,05,27,03,48,13.80
2019,05,27,03,49,13.80
2019,05,27,03,50,13.80
2019,05,27,03,51,13.90
2019,05,27,03,52,13.90
2019,05,27,03,53,13.80
2019,05,27,03,54,13.80
2019,05,27,03,55,13.70
2019,05,27,03,56,13.60
2019,05,27,03,57,13.50
2019,05,27,03,58,13.40
2019,05,27,03,59,13.30
2019,05,27,04,00,13.20
2019,05,27,04,01,13.10
2019,05,27,04,02,13.00
2019,05,27,04,03,12.90
2019,05,27,04,04,12.90
2019,05,27,04,05,12.90
2019,05,27,04,06,12.90
2019,05,27,04,07,13.00
2019,05,27,04,08,13.00
2019,05,27,04,09,13.10
2019,05,27,04,10,13.10
2019,05,27,04,11,13.10
2019,05,27,04,12,13.10
2019,05,27,04,13,13.00
2019,05,27,04,14,13.00
2019,05,27,04,15,13.00
2019,05,27,04,16,12.90
2019,05,27,04,17,12.90
2019,05,27,04,18,12.80
2019,05,27,04,19,12.80
2019,05,27,04,20,12.80
2019,05,27,04,21,12.80
2019,05,27,04,22,12.70
2019,05,27,04,23,12.70
2019,05,27,04,24,12.70
2019,05,27,04,25,12.70
2019,05,27,04,26,12.60
2019,05,27,04,27,12.60
2019,05,27,04,28,12.50
2019,05,27,04,29,12.50
2019,05,27,04,30,12.40
2019,05,27,04,31,12.40
2019,05,27,04,32,12.30
2019,05,27,04,33,12.30
2019,05,27,04,34,12.30
2019,05,27,04,35,12.30
2019,05,27,04,36,12.30
2019,05,27,04,37,12.30
2019,05,27,04,38,12.30
2019,05,27,04,39,12.30
2019,05,27,04,40,12.30
2019,05,27,04,41,12.40
2019,05,27,04,42,12.40
2019,05,27,04,43,12.50
2019,05,27,04,44,12.60
2019,05,27,04,45,12.70
2019,05,27,04,46,12.80
2019,05,27,04,47,12.80
2019,05,27,04,48,12.80
2019,05,27,04,49,12.80
2019,05,27,04,50,12.70
2019,05,27,04,51,12.60
2019,05,27,04,52,12.60
2019,05,27,04,53,12.60
2019,05,27,04,54,12.60
2019,05,27,04,55,12.60
2019,05,27,04,56,12.60
2019,05,27,04,57,12.60
2019,05,27,04,58,12.60
2019,05,27,04,59,12.60
2019,05,27,05,00,12.60
2019,05,27,05,01,12.60
2019,05,27,05,02,12.60
2019,05,27,05,03,12.70
2019,05,27,05,04,12.70
2019,05,27,05,05,12.70
2019,05,27,05,06,12.80
2019,05,27,05,07,12.80
2019,05,27,05,08,12.80
2019,05,27,05,09,12.80
2019,05,27,05,10,12.80
2019,05,27,05,11,12.80
2019,05,27,05,12,12.80
2019,05,27,05,13,12.80
2019,05,27,05,14,12.80
2019,05,27,05,15,12.80
2019,05,27,05,16,12.70
2019,05,27,05,17,12.60
2019,05,27,05,18,12.60
2019,05,27,05,19,12.50
2019,05,27,05,20,12.40
2019,05,27,05,21,12.40
2019,05,27,05,22,12.40
2019,05,27,05,23,12.30
2019,05,27,05,24,12.30
2019,05,27,05,25,12.30
2019,05,27,05,26,12.30
2019,05,27,05,27,12.30
2019,05,27,05,28,12.40
2019,05,27,05,29,12.40
2019,05,27,05,30,12.40
2019,05,27,05,31,12.40
2019,05,27,05,32,12.40
2019,05,27,05,33,12.50
2019,05,27,05,34,12.50
2019,05,27,05,35,12.60
2019,05,27,05,36,12.60
2019,05,27,05,37,12.60
2019,05,27,05,38,12.60
2019,05,27,05,39,12.60
2019,05,27,05,40,12.60
2019,05,27,05,41,12.70
2019,05,27,05,42,12.70
2019,05,27,05,43,12.70
2019,05,27,05,44,12.80
2019,05,27,05,45,12.80
2019,05,27,05,46,12.90
2019,05,27,05,47,13.00
2019,05,27,05,48,13.10
2019,05,27,05,49,13.10
2019,05,27,05,50,13.10
2019,05,27,05,51,13.10
2019,05,27,05,52,13.10
2019,05,27,05,53,13.10
2019,05,27,05,54,13.20
2019,05,27,05,55,13.20
2019,05,27,05,56,13.20
2019,05,27,05,57,13.20
2019,05,27,05,58,13.20
2019,05,27,05,59,13.20
2019,05,27,06,00,13.20
2019,05,27,06,01,13.20
2019,05,27,06,02,13.30
2019,05,27,06,03,13.30
2019,05,27,06,04,13.30
2019,05,27,06,05,13.40
2019,05,27,06,06,13.40
2019,05,27,06,07,13.50
2019,05,27,06,08,13.60
2019,05,27,06,09,13.60
2019,05,27,06,10,13.70
2019,05,27,06,11,13.70
2019,05,27,06,12,13.70
2019,05,27,06,13,13.70
2019,05,27,06,14,13.70
2019,05,27,06,15,13.70
2019,05,27,06,16,13.70
2019,05,27,06,17,13.60
2019,05,27,06,18,13.60
2019,05,27,06,19,13.60
2019,05,27,06,20,13.60
2019,05,27,06,21,13.60
2019,05,27,06,22,13.70
2019,05,27,06,23,13.70
2019,05,27,06,24,13.70
2019,05,27,06,25,13.80
2019,05,27,06,26,13.80
2019,05,27,06,27,13.80
2019,05,27,06,28,13.80
2019,05,27,06,29,13.90
2019,05,27,06,30,13.90
2019,05,27,06,31,14.00
2019,05,27,06,32,14.10
2019,05,27,06,33,14.10
2019,05,27,06,34,14.20
2019,05,27,06,35,14.30
2019,05,27,06,36,14.40
2019,05,27,06,37,14.50
2019,05,27,06,38,14.60
2019,05,27,06,39,14.60
2019,05,27,06,40,14.70
2019,05,27,06,41,14.70
2019,05,27,06,42,14.80
2019,05,27,06,43,14.80
2019,05,27,06,44,14.90
2019,05,27,06,45,14.90
2019,05,27,06,46,14.90
2019,05,27,06,47,14.90
2019,05,27,06,48,14.90
2019,05,27,06,49,14.90
2019,05,27,06,50,14.90
2019,05,27,06,51,14.90
2019,05,27,06,52,14.90
2019,05,27,06,53,14.90
2019,05,27,06,54,14.90
2019,05,27,06,55,15.00
2019,05,27,06,56,15.00
2019,05,27,06,57,15.10
2019,05,27,06,58,15.20
2019,05,27,06,59,15.30
2019,05,27,07,00,15.30
2019,05,27,07,01,15.40
2019,05,27,07,02,15.50
2019,05,27,07,03,15.60
2019,05,27,07,04,15.70
2019,05,27,07,05,15.80
2019,05,27,07,06,15.90
2019,05,27,07,07,16.00
2019,05,27,07,08,16.10
2019,05,27,07,09,16.20
2019,05,27,07,10,16.20
2019,05,27,07,11,16.30
2019,05,27,07,12,16.30
2019,05,27,07,13,16.40
2019,05,27,07,14,16.50
2019,05,27,07,15,16.60
2019,05,27,07,16,16.70
2019,05,27,07,17,16.80
2019,05,27,07,18,16.90
2019,05,27,07,19,17.10
2019,05,27,07,20,17.20
2019,05,27,07,21,17.30
2019,05,27,07,22,17.40
2019,05,27,07,23,17.50
2019,05,27,07,24,17.60
2019,05,27,07,25,17.70
2019,05,27,07,26,17.70
2019,05,27,07,27,17.80
2019,05,27,07,28,17.80
2019,05,27,07,29,17.90
2019,05,27,07,30,17.90
2019,05,27,07,31,18.00
2019,05,27,07,32,18.10
2019,05,27,07,33,18.20
2019,05,27,07,34,18.20
2019,05,27,07,35,18.30
2019,05,27,07,36,18.40
2019,05,27,07,37,18.50
2019,05,27,07,38,18.60
2019,05,27,07,39,18.70
2019,05,27,07,40,18.80
2019,05,27,07,41,18.80
2019,05,27,07,42,18.90
2019,05,27,07,43,19.00
2019,05,27,07,44,19.10
2019,05,27,07,45,19.20
2019,05,27,07,46,19.30
2019,05,27,07,47,19.30
2019,05,27,07,48,19.30
2019,05,27,07,49,19.30
2019,05,27,07,50,19.30
2019,05,27,07,51,19.30
2019,05,27,07,52,19.30
2019,05,27,07,53,19.30
2019,05,27,07,54,19.30
2019,05,27,07,55,19.30
2019,05,27,07,56,19.30
2019,05,27,07,57,19.30
2019,05,27,07,58,19.30
2019,05,27,07,59,19.30
2019,05,27,08,00,19.40
2019,05,27,08,01,19.40
2019,05,27,08,02,19.40
2019,05,27,08,03,19.40
2019,05,27,08,04,19.40
2019,05,27,08,05,19.50
2019,05,27,08,06,19.50
2019,05,27,08,07,19.60
2019,05,27,08,08,19.60
2019,05,27,08,09,19.70
2019,05,27,08,10,19.80
2019,05,27,08,11,19.80
2019,05,27,08,12,19.90
2019,05,27,08,13,19.90
2019,05,27,08,14,19.90
2019,05,27,08,15,19.90
2019,05,27,08,16,19.90
2019,05,27,08,17,19.90
2019,05,27,08,18,20.00
2019,05,27,08,19,20.00
2019,05,27,08,20,20.10
2019,05,27,08,21,20.10
2019,05,27,08,22,20.20
2019,05,27,08,23,20.20
2019,05,27,08,24,20.20
2019,05,27,08,25,20.20
2019,05,27,08,26,20.20
2019,05,27,08,27,20.20
2019,05,27,08,28,20.20
2019,05,27,08,29,20.20
2019,05,27,08,30,20.30
2019,05,27,08,31,20.30
2019,05,27,08,32,20.30
2019,05,27,08,33,20.30
2019,05,27,08,34,20.30
2019,05,27,08,35,20.30
2019,05,27,08,36,20.30
2019,05,27,08,37,20.40
2019,05,27,08,38,20.50
2019,05,27,08,39,20.50
2019,05,27,08,40,20.60
2019,05,27,08,41,20.70
2019,05,27,08,42,20.70
2019,05,27,08,43,20.70
2019,05,27,08,44,20.60
2019,05,27,08,45,20.60
2019,05,27,08,46,20.60
2019,05,27,08,47,20.60
2019,05,27,08,48,20.60
2019,05,27,08,49,20.60
2019,05,27,08,50,20.60
2019,05,27,08,51,20.60
2019,05,27,08,52,20.70
2019,05,27,08,53,20.70
2019,05,27,08,54,20.70
2019,05,27,08,55,20.70
2019,05,27,08,56,20.80
2019,05,27,08,57,20.80
2019,05,27,08,58,20.90
2019,05,27,08,59,20.90
2019,05,27,09,00,20.90
2019,05,27,09,01,20.90
2019,05,27,09,02,21.00
2019,05,27,09,03,21.00
2019,05,27,09,04,20.90
2019,05,27,09,05,20.90
2019,05,27,09,06,20.90
2019,05,27,09,07,20.90
2019,05,27,09,08,20.90
2019,05,27,09,09,20.90
2019,05,27,09,10,20.90
2019,05,27,09,11,20.90
2019,05,27,09,12,20.90
2019,05,27,09,13,20.90
2019,05,27,09,14,20.90
2019,05,27,09,15,20.90
2019,05,27,09,16,20.90
2019,05,27,09,17,20.90
2019,05,27,09,18,20.90
2019,05,27,09,19,20.90
2019,05,27,09,20,20.90
2019,05,27,09,21,21.00
2019,05,27,09,22,21.10
2019,05,27,09,23,21.10
2019,05,27,09,24,21.10
2019,05,27,09,25,21.20
2019,05,27,09,26,21.20
2019,05,27,09,27,21.30
2019,05,27,09,28,21.20
2019,05,27,09,29,21.20
2019,05,27,09,30,21.20
2019,05,27,09,31,21.20
2019,05,27,09,32,21.20
2019,05,27,09,33,21.20
2019,05,27,09,34,21.20
2019,05,27,09,35,21.20
2019,05,27,09,36,21.20
2019,05,27,09,37,21.20
2019,05,27,09,38,21.20
2019,05,27,09,39,21.20
2019,05,27,09,40,21.30
2019,05,27,09,41,21.30
2019,05,27,09,42,21.30
2019,05,27,09,43,21.30
2019,05,27,09,44,21.30
2019,05,27,09,45,21.20
2019,05,27,09,46,21.20
2019,05,27,09,47,21.20
2019,05,27,09,48,21.20
2019,05,27,09,49,21.30
2019,05,27,09,50,21.30
2019,05,27,09,51,21.40
2019,05,27,09,52,21.40
2019,05,27,09,53,21.50
2019,05,27,09,54,21.50
2019,05,27,09,55,21.50
2019,05,27,09,56,21.40
2019,05,27,09,57,21.30
2019,05,27,09,58,21.30
2019,05,27,09,59,21.30
2019,05,27,10,00,21.30
2019,05,27,10,01,21.30
2019,05,27,10,02,21.30
2019,05,27,10,03,21.30
2019,05,27,10,04,21.30
2019,05,27,10,05,21.30
2019,05,27,10,06,21.20
2019,05,27,10,07,21.20
2019,05,27,10,08,21.10
2019,05,27,10,09,21.20
2019,05,27,10,10,21.20
2019,05,27,10,11,21.30
2019,05,27,10,12,21.30
2019,05,27,10,13,21.40
2019,05,27,10,14,21.40
2019,05,27,10,15,21.40
2019,05,27,10,16,21.40
2019,05,27,10,17,21.40
2019,05,27,10,18,21.40
2019,05,27,10,19,21.40
2019,05,27,10,20,21.50
2019,05,27,10,21,21.50
2019,05,27,10,22,21.50
2019,05,27,10,23,21.50
2019,05,27,10,24,21.40
2019,05,27,10,25,21.40
2019,05,27,10,26,21.30
2019,05,27,10,27,21.30
2019,05,27,10,28,21.20
2019,05,27,10,29,21.30
2019,05,27,10,30,21.30
2019,05,27,10,31,21.30
2019,05,27,10,32,21.30
2019,05,27,10,33,21.30
2019,05,27,10,34,21.30
2019,05,27,10,35,21.30
2019,05,27,10,36,21.30
2019,05,27,10,37,21.30
2019,05,27,10,38,21.30
2019,05,27,10,39,21.40
2019,05,27,10,40,21.50
2019,05,27,10,41,21.50
2019,05,27,10,42,21.60
2019,05,27,10,43,21.70
2019,05,27,10,44,21.70
2019,05,27,10,45,21.80
2019,05,27,10,46,21.70
2019,05,27,10,47,21.70
2019,05,27,10,48,21.70
2019,05,27,10,49,21.70
2019,05,27,10,50,21.80
2019,05,27,10,51,21.80
2019,05,27,10,52,21.90
2019,05,27,10,53,22.00
2019,05,27,10,54,22.10
2019,05,27,10,55,22.20
2019,05,27,10,56,22.20
2019,05,27,10,57,22.30
2019,05,27,10,58,22.40
2019,05,27,10,59,22.40
2019,05,27,11,00,22.50
2019,05,27,11,01,22.50
2019,05,27,11,02,22.60
2019,05,27,11,03,22.70
2019,05,27,11,04,22.70
2019,05,27,11,05,22.70
2019,05,27,11,06,22.60
2019,05,27,11,07,22.50
2019,05,27,11,08,22.40
2019,05,27,11,09,22.40
2019,05,27,11,10,22.30
2019,05,27,11,11,22.30
2019,05,27,11,12,22.30
2019,05,27,11,13,22.40
2019,05,27,11,14,22.40
2019,05,27,11,15,22.40
2019,05,27,11,16,22.40
2019,05,27,11,17,22.40
2019,05,27,11,18,22.40
2019,05,27,11,19,22.40
2019,05,27,11,20,22.40
2019,05,27,11,21,22.30
2019,05,27,11,22,22.30
2019,05,27,11,23,22.30
2019,05,27,11,24,22.30
2019,05,27,11,25,22.30
2019,05,27,11,26,22.30
2019,05,27,11,27,22.40
2019,05,27,11,28,22.50
2019,05,27,11,29,22.60
2019,05,27,11,30,22.70
2019,05,27,11,31,22.80
2019,05,27,11,32,22.90
2019,05,27,11,33,23.00
2019,05,27,11,34,23.10
2019,05,27,11,35,23.10
2019,05,27,11,36,23.20
2019,05,27,11,37,23.20
2019,05,27,11,38,23.20
2019,05,27,11,39,23.30
2019,05,27,11,40,23.40
2019,05,27,11,41,23.50
2019,05,27,11,42,23.50
2019,05,27,11,43,23.50
2019,05,27,11,44,23.50
2019,05,27,11,45,23.60
2019,05,27,11,46,23.60
2019,05,27,11,47,23.70
2019,05,27,11,48,23.70
2019,05,27,11,49,23.80
2019,05,27,11,50,23.80
2019,05,27,11,51,23.70
2019,05,27,11,52,23.70
2019,05,27,11,53,23.70
2019,05,27,11,54,23.70
2019,05,27,11,55,23.80
2019,05,27,11,56,23.80
2019,05,27,11,57,23.80
2019,05,27,11,58,23.80
2019,05,27,11,59,23.80
2019,05,27,12,00,23.80
2019,05,27,12,01,23.80
2019,05,27,12,02,23.70
2019,05,27,12,03,23.60
2019,05,27,12,04,23.50
2019,05,27,12,05,23.40
2019,05,27,12,06,23.30
2019,05,27,12,07,23.30
2019,05,27,12,08,23.30
2019,05,27,12,09,23.20
2019,05,27,12,10,23.20
2019,05,27,12,11,23.20
2019,05,27,12,12,23.20
2019,05,27,12,13,23.30
2019,05,27,12,14,23.50
2019,05,27,12,15,23.50
2019,05,27,12,16,23.60
2019,05,27,12,17,23.70
2019,05,27,12,18,23.80
2019,05,27,12,19,23.80
2019,05,27,12,20,23.80
2019,05,27,12,21,23.80
2019,05,27,12,22,23.70
2019,05,27,12,23,23.70
2019,05,27,12,24,23.70
2019,05,27,12,25,23.60
2019,05,27,12,26,23.50
2019,05,27,12,27,23.50
2019,05,27,12,28,23.40
2019,05,27,12,29,23.40
2019,05,27,12,30,23.50
2019,05,27,12,31,23.60
2019,05,27,12,32,23.60
2019,05,27,12,33,23.70
2019,05,27,12,34,23.70
2019,05,27,12,35,23.80
2019,05,27,12,36,23.90
2019,05,27,12,37,24.00
2019,05,27,12,38,24.10
2019,05,27,12,39,24.20
2019,05,27,12,40,24.10
2019,05,27,12,41,24.10
2019,05,27,12,42,24.10
2019,05,27,12,43,24.10
2019,05,27,12,44,24.10
2019,05,27,12,45,24.00
2019,05,27,12,46,23.90
2019,05,27,12,47,23.90
2019,05,27,12,48,23.90
2019,05,27,12,49,24.00
2019,05,27,12,50,24.00
2019,05,27,12,51,24.00
2019,05,27,12,52,24.10
2019,05,27,12,53,24.20
2019,05,27,12,54,24.30
2019,05,27,12,55,24.40
2019,05,27,12,56,24.50
2019,05,27,12,57,24.60
2019,05,27,12,58,24.70
2019,05,27,12,59,24.70
2019,05,27,13,00,24.80
2019,05,27,13,01,24.80
2019,05,27,13,02,24.80
2019,05,27,13,03,24.80
2019,05,27,13,04,24.90
2019,05,27,13,05,24.90
2019,05,27,13,06,24.90
2019,05,27,13,07,24.90
2019,05,27,13,08,24.90
2019,05,27,13,09,24.90
2019,05,27,13,10,25.00
2019,05,27,13,11,25.10
2019,05,27,13,12,25.10
2019,05,27,13,13,25.20
2019,05,27,13,14,25.20
2019,05,27,13,15,25.20
2019,05,27,13,16,25.20
2019,05,27,13,17,25.20
2019,05,27,13,18,25.10
2019,05,27,13,19,25.10
2019,05,27,13,20,25.20
2019,05,27,13,21,25.20
2019,05,27,13,22,25.10
2019,05,27,13,23,25.10
2019,05,27,13,24,25.10
2019,05,27,13,25,25.10
2019,05,27,13,26,25.10
2019,05,27,13,27,25.10
2019,05,27,13,28,25.10
2019,05,27,13,29,25.10
2019,05,27,13,30,25.10
2019,05,27,13,31,25.00
2019,05,27,13,32,25.00
2019,05,27,13,33,25.10
2019,05,27,13,34,25.20
2019,05,27,13,35,25.30
2019,05,27,13,36,25.40
2019,05,27,13,37,25.40
2019,05,27,13,38,25.40
2019,05,27,13,39,25.50
2019,05,27,13,40,25.50
2019,05,27,13,41,25.60
2019,05,27,13,42,25.60
2019,05,27,13,43,25.60
2019,05,27,13,44,25.60
2019,05,27,13,45,25.60
2019,05,27,13,46,25.60
2019,05,27,13,47,25.70
2019,05,27,13,48,25.70
2019,05,27,13,49,25.60
2019,05,27,13,50,25.60
2019,05,27,13,51,25.50
2019,05,27,13,52,25.40
2019,05,27,13,53,25.40
2019,05,27,13,54,25.40
2019,05,27,13,55,25.30
2019,05,27,13,56,25.20
2019,05,27,13,57,25.20
2019,05,27,13,58,25.10
2019,05,27,13,59,25.20
2019,05,27,14,00,25.20
2019,05,27,14,01,25.30
2019,05,27,14,02,25.30
2019,05,27,14,03,25.30
2019,05,27,14,04,25.30
2019,05,27,14,05,25.30
2019,05,27,14,06,25.30
2019,05,27,14,07,25.30
2019,05,27,14,08,25.40
2019,05,27,14,09,25.50
2019,05,27,14,10,25.60
2019,05,27,14,11,25.70
2019,05,27,14,12,25.70
2019,05,27,14,13,25.70
2019,05,27,14,14,25.80
2019,05,27,14,15,25.80
2019,05,27,14,16,25.80
2019,05,27,14,17,25.80
2019,05,27,14,18,25.80
2019,05,27,14,19,25.80
2019,05,27,14,20,25.70
2019,05,27,14,21,25.70
2019,05,27,14,22,25.70
2019,05,27,14,23,25.70
2019,05,27,14,24,25.80
2019,05,27,14,25,25.80
2019,05,27,14,26,25.90
2019,05,27,14,27,25.90
2019,05,27,14,28,26.00
2019,05,27,14,29,26.00
2019,05,27,14,30,26.10
2019,05,27,14,31,26.10
2019,05,27,14,32,26.20
2019,05,27,14,33,26.20
2019,05,27,14,34,26.20
2019,05,27,14,35,26.10
2019,05,27,14,36,26.00
2019,05,27,14,37,25.90
2019,05,27,14,38,25.80
2019,05,27,14,39,25.80
2019,05,27,14,40,25.80
2019,05,27,14,41,25.80
2019,05,27,14,42,25.80
2019,05,27,14,43,25.80
2019,05,27,14,44,25.90
2019,05,27,14,45,25.90
2019,05,27,14,46,26.00
2019,05,27,14,47,26.00
2019,05,27,14,48,26.00
2019,05,27,14,49,26.00
2019,05,27,14,50,26.00
2019,05,27,14,51,26.10
2019,05,27,14,52,26.10
2019,05,27,14,53,26.10
2019,05,27,14,54,26.10
2019,05,27,14,55,26.20
2019,05,27,14,56,26.20
2019,05,27,14,57,26.20
2019,05,27,14,58,26.20
2019,05,27,14,59,26.30
2019,05,27,15,00,26.20
2019,05,27,15,01,26.20
2019,05,27,15,02,26.20
2019,05,27,15,03,26.10
2019,05,27,15,04,26.10
2019,05,27,15,05,26.00
2019,05,27,15,06,26.00
2019,05,27,15,07,25.90
2019,05,27,15,08,26.00
2019,05,27,15,09,26.00
2019,05,27,15,10,26.10
2019,05,27,15,11,26.20
2019,05,27,15,12,26.30
2019,05,27,15,13,26.30
2019,05,27,15,14,26.40
2019,05,27,15,15,26.40
2019,05,27,15,16,26.40
2019,05,27,15,17,26.40
2019,05,27,15,18,26.40
2019,05,27,15,19,26.50
2019,05,27,15,20,26.50
2019,05,27,15,21,26.50
2019,05,27,15,22,26.40
2019,05,27,15,23,26.50
2019,05,27,15,24,26.50
2019,05,27,15,25,26.60
2019,05,27,15,26,26.70
2019,05,27,15,27,26.80
2019,05,27,15,28,26.80
2019,05,27,15,29,26.90
2019,05,27,15,30,27.00
2019,05,27,15,31,27.00
2019,05,27,15,32,27.00
2019,05,27,15,33,27.10
2019,05,27,15,34,27.10
2019,05,27,15,35,27.20
2019,05,27,15,36,27.20
2019,05,27,15,37,27.30
2019,05,27,15,38,27.30
2019,05,27,15,39,27.30
2019,05,27,15,40,27.30
2019,05,27,15,41,27.30
2019,05,27,15,42,27.20
2019,05,27,15,43,27.10
2019,05,27,15,44,27.00
2019,05,27,15,45,27.00
2019,05,27,15,46,26.90
2019,05,27,15,47,26.90
2019,05,27,15,48,27.00
2019,05,27,15,49,27.00
2019,05,27,15,50,27.10
2019,05,27,15,51,27.10
2019,05,27,15,52,27.20
2019,05,27,15,53,27.30
2019,05,27,15,54,27.40
2019,05,27,15,55,27.50
2019,05,27,15,56,27.50
2019,05,27,15,57,27.50
2019,05,27,15,58,27.50
2019,05,27,15,59,27.40
2019,05,27,16,00,27.30
2019,05,27,16,01,27.30
2019,05,27,16,02,27.30
2019,05,27,16,03,27.40
2019,05,27,16,04,27.40
2019,05,27,16,05,27.50
2019,05,27,16,06,27.60
2019,05,27,16,07,27.60
2019,05,27,16,08,27.60
2019,05,27,16,09,27.70
2019,05,27,16,10,27.70
2019,05,27,16,11,27.70
2019,05,27,16,12,27.70
2019,05,27,16,13,27.70
2019,05,27,16,14,27.70
2019,05,27,16,15,27.70
2019,05,27,16,16,27.70
2019,05,27,16,17,27.80
2019,05,27,16,18,27.80
2019,05,27,16,19,27.90
2019,05,27,16,20,27.90
2019,05,27,16,21,27.90
2019,05,27,16,22,27.90
2019,05,27,16,23,27.80
2019,05,27,16,24,27.80
2019,05,27,16,25,27.70
2019,05,27,16,26,27.70
2019,05,27,16,27,27.60
2019,05,27,16,28,27.60
2019,05,27,16,29,27.60
2019,05,27,16,30,27.50
2019,05,27,16,31,27.50
2019,05,27,16,32,27.50
2019,05,27,16,33,27.50
2019,05,27,16,34,27.50
2019,05,27,16,35,27.50
2019,05,27,16,36,27.60
2019,05,27,16,37,27.70
2019,05,27,16,38,27.80
2019,05,27,16,39,27.90
2019,05,27,16,40,27.90
2019,05,27,16,41,27.90
2019,05,27,16,42,27.90
2019,05,27,16,43,27.90
2019,05,27,16,44,27.90
2019,05,27,16,45,27.90
2019,05,27,16,46,27.90
2019,05,27,16,47,27.90
2019,05,27,16,48,28.00
2019,05,27,16,49,28.00
2019,05,27,16,50,28.00
2019,05,27,16,51,28.00
2019,05,27,16,52,27.90
2019,05,27,16,53,27.90
2019,05,27,16,54,27.90
2019,05,27,16,55,27.90
2019,05,27,16,56,27.90
2019,05,27,16,57,27.90
2019,05,27,16,58,27.90
2019,05,27,16,59,27.90
2019,05,27,17,00,28.00
2019,05,27,17,01,28.00
2019,05,27,17,02,28.00
2019,05,27,17,03,28.00
2019,05,27,17,04,28.00
2019,05,27,17,05,28.00
2019,05,27,17,06,27.90
2019,05,27,17,07,27.90
2019,05,27,17,08,27.90
2019,05,27,17,09,27.80
2019,05,27,17,10,27.90
2019,05,27,17,11,27.90
2019,05,27,17,12,27.80
2019,05,27,17,13,27.80
2019,05,27,17,14,27.80
2019,05,27,17,15,27.90
2019,05,27,17,16,27.90
2019,05,27,17,17,27.90
2019,05,27,17,18,28.00
2019,05,27,17,19,27.90